Location: ??????????
(54.8537°N, 38.8755°E)
Time: 01:22:10
(UTC+00:00)

Tiros 1 - Pass Details

Date: 19 September 2024
Orbit: 623 x 654 km, 48.4° (Epoch: 15 October)

Event Time Altitude Azimuth Distance (km) Brightness Sun altitude
Rises 14:46:02 0° 261° (W) 2,901 13.4 5.5°
Reaches altitude 10° 14:48:28 10° 253° (WSW) 1,996 11.8 5.2°
Maximum altitude 14:52:39 36° 187° (S) 1,000 8.4 4.6°
Drops below altitude 10° 14:56:52 10° 121° (ESE) 2,007 9.2 4.0°
Sets 14:59:19 0° 113° (ESE) 2,919 9.9 3.6°
